Hourly Weather Bolshie Hutora

Today, 2 August, Monday

Time Temperature Precipitation Wind Pressure Humidity
00:00 +23°C° 0 mm 2 mps 746 mmHg 67%
01:00 +21°C° 0 mm 2 mps 746 mmHg 67%
02:00 +21°C° 0 mm 2 mps 746 mmHg 68%
03:00 +21°C° 0 mm 2 mps 746 mmHg 69%
04:00 +21°C° 0 mm 2 mps 746 mmHg 68%
05:00 +21°C° 0 mm 2 mps 746 mmHg 68%
06:00 +23°C° 0 mm 2 mps 746 mmHg 67%
07:00 +25°C° 0 mm 3 mps 746 mmHg 61%
08:00 +27°C° 0 mm 3 mps 746 mmHg 56%
09:00 +29°C° 0 mm 3 mps 746 mmHg 50%
10:00 +30°C° 0 mm 3 mps 746 mmHg 47%
11:00 +33°C° 0 mm 3 mps 746 mmHg 43%
12:00 +34°C° 0 mm 3 mps 745 mmHg 40%
13:00 +34°C° 0 mm 3 mps 745 mmHg 38%
14:00 +35°C° 0 mm 3 mps 745 mmHg 37%
15:00 +35°C° 0 mm 3 mps 745 mmHg 35%
16:00 +34°C° 0 mm 3 mps 744 mmHg 39%
17:00 +34°C° 0 mm 2 mps 744 mmHg 43%
18:00 +32°C° 0 mm 1 mps 744 mmHg 47%
19:00 +30°C° 0 mm 2 mps 744 mmHg 50%
20:00 +29°C° 0 mm 2 mps 743 mmHg 54%
21:00 +27°C° 0 mm 3 mps 743 mmHg 57%
22:00 +26°C° 0 mm 3 mps 743 mmHg 59%
23:00 +26°C° 0 mm 3 mps 743 mmHg 60%

Tomorrow, 3 August, Tuesday

Time Temperature Precipitation Wind Pressure Humidity
00:00 +25°C° 0 mm 3 mps 743 mmHg 61%
01:00 +25°C° 0 mm 3 mps 743 mmHg 60%
02:00 +25°C° 0 mm 3 mps 743 mmHg 60%
03:00 +23°C° 0 mm 4 mps 743 mmHg 60%
04:00 +24°C° 0.1 mm 3 mps 743 mmHg 64%
05:00 +24°C° 0.1 mm 3 mps 743 mmHg 68%
06:00 +22°C° 0.1 mm 3 mps 743 mmHg 72%
07:00 +25°C° 0 mm 3 mps 743 mmHg 66%
08:00 +27°C° 0 mm 3 mps 743 mmHg 60%
09:00 +29°C° 0 mm 3 mps 743 mmHg 54%
10:00 +30°C° 0 mm 3 mps 743 mmHg 51%
11:00 +32°C° 0 mm 4 mps 744 mmHg 48%
12:00 +33°C° 0 mm 4 mps 744 mmHg 45%
13:00 +32°C° 0 mm 4 mps 744 mmHg 48%
14:00 +30°C° 0 mm 4 mps 744 mmHg 50%
15:00 +29°C° 0 mm 4 mps 744 mmHg 52%
16:00 +29°C° 0 mm 3 mps 744 mmHg 55%
17:00 +28°C° 0 mm 3 mps 743 mmHg 57%
18:00 +28°C° 0 mm 2 mps 743 mmHg 59%
19:00 +26°C° 0.2 mm 2 mps 744 mmHg 66%
20:00 +24°C° 0.2 mm 1 mps 744 mmHg 72%
21:00 +23°C° 0.2 mm 1 mps 744 mmHg 78%
22:00 +22°C° 0.4 mm 1 mps 744 mmHg 81%
23:00 +21°C° 0.4 mm 2 mps 744 mmHg 85%

Day after tomorrow, 4 August, Wednesday

Time Temperature Precipitation Wind Pressure Humidity
00:00 +21°C° 0.4 mm 2 mps 744 mmHg 88%
01:00 +20°C° 1.4 mm 2 mps 744 mmHg 90%
02:00 +20°C° 1.4 mm 2 mps 744 mmHg 92%
03:00 +20°C° 1.4 mm 2 mps 744 mmHg 94%
04:00 +21°C° 0.2 mm 1 mps 745 mmHg 92%
05:00 +21°C° 0.2 mm 1 mps 745 mmHg 91%
06:00 +19°C° 0.2 mm 0 mps 745 mmHg 89%
07:00 +21°C° 0.5 mm 2 mps 746 mmHg 83%
08:00 +22°C° 0.5 mm 3 mps 746 mmHg 77%
09:00 +23°C° 0.5 mm 4 mps 746 mmHg 71%
10:00 +25°C° 0 mm 4 mps 746 mmHg 65%
11:00 +26°C° 0 mm 4 mps 746 mmHg 58%
12:00 +27°C° 0 mm 5 mps 746 mmHg 52%
13:00 +26°C° 0 mm 4 mps 746 mmHg 53%
14:00 +26°C° 0 mm 3 mps 747 mmHg 54%
15:00 +26°C° 0 mm 3 mps 747 mmHg 54%
16:00 +25°C° 0 mm 2 mps 747 mmHg 56%
17:00 +25°C° 0 mm 2 mps 747 mmHg 57%
18:00 +25°C° 0 mm 2 mps 747 mmHg 58%
19:00 +23°C° 0 mm 2 mps 747 mmHg 57%
20:00 +21°C° 0 mm 2 mps 748 mmHg 56%
21:00 +20°C° 0 mm 2 mps 748 mmHg 55%
22:00 +20°C° 0 mm 2 mps 748 mmHg 56%
23:00 +19°C° 0 mm 2 mps 748 mmHg 57%

5 August, Thursday

Time Temperature Precipitation Wind Pressure Humidity
00:00 +18°C° 0 mm 2 mps 748 mmHg 58%
01:00 +18°C° 0 mm 2 mps 748 mmHg 61%
02:00 +17°C° 0 mm 2 mps 748 mmHg 64%
03:00 +17°C° 0 mm 2 mps 749 mmHg 67%
04:00 +17°C° 0 mm 2 mps 749 mmHg 69%
05:00 +17°C° 0 mm 2 mps 749 mmHg 71%
06:00 +17°C° 0 mm 2 mps 749 mmHg 72%
07:00 +19°C° 0 mm 2 mps 749 mmHg 66%
08:00 +20°C° 0 mm 2 mps 749 mmHg 61%
09:00 +23°C° 0 mm 2 mps 749 mmHg 55%
10:00 +24°C° 0 mm 2 mps 749 mmHg 51%
11:00 +25°C° 0 mm 2 mps 749 mmHg 46%
12:00 +26°C° 0 mm 2 mps 749 mmHg 42%
13:00 +27°C° 0 mm 2 mps 749 mmHg 40%
14:00 +27°C° 0 mm 2 mps 749 mmHg 38%
15:00 +27°C° 0 mm 2 mps 749 mmHg 36%
16:00 +27°C° 0 mm 1 mps 749 mmHg 40%
17:00 +27°C° 0 mm 1 mps 749 mmHg 44%
18:00 +26°C° 0 mm 1 mps 749 mmHg 48%
19:00 +25°C° 0 mm 1 mps 749 mmHg 48%
20:00 +23°C° 0 mm 1 mps 749 mmHg 48%
21:00 +22°C° 0 mm 1 mps 749 mmHg 47%
22:00 +22°C° 0 mm 1 mps 749 mmHg 48%
23:00 +21°C° 0 mm 1 mps 749 mmHg 49%

6 August, Friday

Time Temperature Precipitation Wind Pressure Humidity
00:00 +21°C° 0 mm 1 mps 748 mmHg 50%
01:00 +21°C° 0 mm 1 mps 748 mmHg 50%
02:00 +21°C° 0 mm 1 mps 748 mmHg 51%
03:00 +20°C° 0 mm 1 mps 748 mmHg 51%
04:00 +20°C° 0 mm 1 mps 749 mmHg 54%
05:00 +20°C° 0 mm 1 mps 749 mmHg 57%
06:00 +19°C° 0 mm 2 mps 749 mmHg 60%
07:00 +20°C° 0 mm 2 mps 749 mmHg 59%
08:00 +21°C° 0 mm 2 mps 749 mmHg 58%
09:00 +23°C° 0 mm 2 mps 749 mmHg 57%
10:00 +24°C° 0 mm 2 mps 749 mmHg 53%
11:00 +26°C° 0 mm 2 mps 749 mmHg 49%
12:00 +27°C° 0 mm 2 mps 749 mmHg 45%
13:00 +27°C° 0 mm 3 mps 749 mmHg 44%
14:00 +28°C° 0 mm 3 mps 749 mmHg 44%
15:00 +28°C° 0 mm 3 mps 749 mmHg 43%
16:00 +27°C° 0 mm 3 mps 749 mmHg 47%
17:00 +26°C° 0 mm 3 mps 749 mmHg 51%
18:00 +26°C° 0 mm 3 mps 749 mmHg 55%
19:00 +24°C° 0 mm 3 mps 749 mmHg 61%
20:00 +21°C° 0 mm 3 mps 749 mmHg 68%
21:00 +19°C° 0 mm 3 mps 750 mmHg 74%
22:00 +18°C° 0 mm 3 mps 750 mmHg 76%
23:00 +17°C° 0 mm 3 mps 750 mmHg 79%

7 August, Saturday

Time Temperature Precipitation Wind Pressure Humidity
00:00 +17°C° 0 mm 3 mps 750 mmHg 82%
01:00 +16°C° 0 mm 3 mps 750 mmHg 82%
02:00 +16°C° 0 mm 3 mps 750 mmHg 83%
03:00 +14°C° 0 mm 3 mps 750 mmHg 84%
04:00 +16°C° 0 mm 3 mps 751 mmHg 82%
05:00 +16°C° 0 mm 3 mps 751 mmHg 80%
06:00 +16°C° 0 mm 3 mps 751 mmHg 78%
07:00 +18°C° 0 mm 3 mps 751 mmHg 70%
08:00 +20°C° 0 mm 4 mps 751 mmHg 62%
09:00 +22°C° 0 mm 4 mps 752 mmHg 54%
10:00 +23°C° 0 mm 4 mps 752 mmHg 50%
11:00 +25°C° 0 mm 4 mps 752 mmHg 46%
12:00 +26°C° 0 mm 4 mps 752 mmHg 42%
13:00 +27°C° 0 mm 3 mps 751 mmHg 40%
14:00 +27°C° 0 mm 3 mps 751 mmHg 39%
15:00 +28°C° 0 mm 3 mps 751 mmHg 37%
16:00 +27°C° 0 mm 3 mps 751 mmHg 41%
17:00 +27°C° 0 mm 3 mps 751 mmHg 45%
18:00 +26°C° 0 mm 3 mps 751 mmHg 48%
19:00 +24°C° 0 mm 3 mps 751 mmHg 51%
20:00 +21°C° 0 mm 4 mps 752 mmHg 54%
21:00 +19°C° 0 mm 4 mps 752 mmHg 57%
22:00 +19°C° 0 mm 4 mps 752 mmHg 55%
23:00 +18°C° 0 mm 4 mps 752 mmHg 54%
Show more

We Need Your Consent

Meteoprog and our Service Providers may store and access personal data such as cookies, device identifiers or other similar technologies on your device and process such data to personalise content and ads, as well as provide social media features and to analyse the traffic.

  • Store and/or access information on your device

    Cookies, device identifiers or other information can be stored or accessed on your device for the purposes indicated above.

  • Personalised ads and content, ad and content measurement, audience insights, and products development

    Ads and content can be personalised based on a profile. More data can be added to better personalise ads and content. Ad and content performance can be measured. Insights about the audience who saw the ads and content can be derived. Such data can be used to develop or improve user’s experience, systems and software.

By clicking ‘I Agree’ you will allow the use of indicated cookies, device identifiers, web beacons or other similar technologies. Your settings can be changed in the browser on your device.

For certain purposes, legitimate interests may be relied on, rather than consent. You can read more about this in our Privacy and Cookie Policy.